COSMOS 716

导读

COSMOS 716(宇宙716)是苏联(CIS)于1975年2月28日08:00发射的无人卫星,属于苏联“宇宙”(Kosmos/Cosmos)卫星系列。该系列自1962年起持续发射,涵盖科研、导航、军事侦察等多元任务,曾将其他项目失败探测器重编号纳入,是冷战时期苏联太空探索的重要组成,推动了当时航天技术与空间科学研究发展。

Basic Information
目录编号:
7683
目录名称:
COSMOS 716
国际标识:
1975-016F
轨道中心:
EARTH
卫星名称:
COSMOS 716
卫星全名:
--
卫星状态:
在轨 (已飞行18826 天)
发射日期:
1975-02-28 UTC
国别 :
俄罗斯(独联体) (CIS)
星等 :
--
This satellite is enrolled in the Space Conjunction Data Service (SCDS) and the current flight risk assessment level is: No High Risk
Orbit Information
数据来源 国际轨道数据 AOE轨道数据
星历时间 2026-09-13T13:03:13+0800
1天前
查看轨道信息
2026-09-13T00:00:00+0800
1天前
查看轨道信息
半长轴 7874.375km 7874.377km
偏心率 0.0021364 0.0021345
轨道倾角 74.004° 74.005°
近地点辐角 105.318° 105.700°
升交点赤经 157.922° 158.635°
平近点角 12.287° 99.948°
近地点 1479.415km 1479.432km
远地点 1513.061km 1513.048km
周期 115.900分钟 115.900分钟
每日圈数 12.424493 12.424488
Detailed Information
使用方式:
暂无
2D Orbit Map
3D Orbit Map
Orbit Altitude Analysis Chart
Orbit Inclination Analysis Chart
Orbit Comprehensive Analysis Chart
View Comprehensive Chart
Miss Distance Evolution Trend with All Objects Subscribe to Flight Safety Assessment
Collision Probability Evolution Trend with All Objects Subscribe to Flight Safety Assessment